Location: Bamobli
(6.6379°N, 10.9396°W)
Time: 00:10:05
(UTC+00:00)

Atlas Centaur 2 - Pass Details

Date: 07 June 2020
Orbit: 459 x 1310 km, 30.4° (Epoch: 13 July)

Event Time Altitude Azimuth Distance (km) Brightness Sun altitude
Exits shadow 05:33:42 17° 259° (W) 2,051 3.6 -13.1°
Maximum altitude 05:38:02 47° 327° (NNW) 984 2.5 -12.1°
Drops below altitude 10° 05:42:37 10° 42° (NE) 2,025 5.4 -11.1°
Sets 05:44:46 0° 48° (NE) 2,822 6.6 -10.6°
